Wetbulb
37.85 37.40 37.00 37.09 36.22 35.41 35.94 36.38 37.84 38.59 40.29 42.83 43.63 48.85 44.88 44.31 43.14 43.47 42.54 42.62 43.10 44.90 45.98 47.56 50.68 52.74 57.55 60.39 61.38 61.36 60.10 59.73 60.72 59.08 57.57 57.47 58.00 57.79 57.82 58.19 58.54 57.52 58.91
35.68 36.27 34.93 34.43 35.15 34.73 34.20 35.04 36.68 37.65 38.41 41.55 43.71 44.76 44.25 42.95 41.96 41.90 41.24 40.88 41.06 41.84 43.53 43.25 45.19 46.88 51.11 52.86 54.36 59.03 59.92 59.75 60.26 57.84 56.82 54.69 56.03 56.66 57.50 57.19 57.62 57.74 58.36
33.93 34.06 33.96 32.42 32.63 33.58 33.38 35.44 35.49 36.03 37.07 38.20 42.33 43.80 43.76 41.78 40.45 39.69 39.50 39.35 39.63 40.22 40.48 40.92 42.05 43.32 45.83 46.14 48.30 52.15 53.91 58.19 59.77 59.94 56.45 52.93 52.61 55.20 56.21 56.32 57.06 57.06 56.97
33.91 33.84 32.79 31.75 31.65 32.64 33.55 35.60 35.29 34.51 35.53 36.75 37.38 38.81 38.08 37.12 38.26 38.58 38.70 38.86 38.63 38.13 39.19 39.54 39.97 41.06 42.65 42.34 44.39 47.10 47.01 52.67 56.86 58.42 58.23 53.59 53.91 52.68 51.39 56.24 56.26 57.23 56.62
32.80 32.13 31.91 32.92 32.91 32.38 31.34 31.38 32.01 32.08 34.02 33.82 34.89 34.56 34.40 36.27 36.73 36.68 35.87 35.79 36.79 36.75 37.15 37.83 38.50 38.74 39.72 40.22 40.78 42.52 42.80 45.77 48.95 51.52 53.90 52.29 51.33 50.41 51.49 50.57 54.04 56.17 56.97
31.56 31.74 32.17 33.06 31.52 30.55 30.19 30.40 30.52 30.43 30.71 30.62 30.57 30.75 30.08 31.47 32.73 32.80 33.09 34.12 34.29 34.61 35.06 35.97 36.69 37.77 38.21 38.28 39.34 40.28 40.39 41.12 42.40 43.62 48.73 48.43 49.41 49.58 49.10 48.04 51.42 53.40 54.47
30.43 30.52 30.19 29.67 29.86 29.09 28.97 29.97 29.36 29.07 29.21 28.85 28.28 27.90 28.74 28.38 28.40 28.38 30.05 31.08 31.67 32.03 32.88 34.05 34.66 35.64 36.44 37.59 38.36 38.25 38.95 39.14 38.78 39.28 41.62 42.65 43.30 44.79 48.47 49.14 48.56 48.65 49.97
30.95 30.51 30.26 29.27 29.38 29.63 28.75 28.71 28.65 28.11 28.57 27.95 27.76 28.00 28.65 28.68 28.68 28.32 28.72 28.55 29.13 30.24 31.60 32.89 33.62 34.45 35.04 35.64 36.74 36.85 37.75 38.21 38.03 37.94 38.35 39.26 39.70 40.53 41.76 43.07 46.26 45.47 46.79
30.10 29.97 29.84 28.93 28.17 27.97 28.14 28.18 28.18 28.26 28.35 27.93 27.19 26.47 26.72 26.91 27.03 27.92 28.29 28.53 28.89 30.47 29.69 30.85 32.06 32.83 33.00 34.10 34.98 34.47 34.12 36.10 36.86 36.93 37.32 37.28 38.25 38.79 39.07 40.03 41.02 42.36 43.68
30.87 29.64 29.02 28.23 27.48 27.39 27.41 27.36 27.93 27.43 28.07 28.25 27.80 27.54 26.98 27.11 27.22 27.33 27.16 27.89 28.52 29.29 29.20 29.33 29.48 31.18 32.04 32.65 33.07 33.80 33.86 33.67 34.34 34.98 35.14 35.20 35.85 36.92 38.59 38.49 38.35 38.35 38.88
31.94 29.53 27.71 27.22 26.54 26.17 25.88 25.82 26.24 26.97 27.79 28.62 28.41 28.26 28.10 27.87 28.19 27.96 28.01 27.91 28.41 28.27 28.38 29.00 29.26 28.79 29.76 31.29 31.83 32.28 32.50 32.18 32.33 33.43 33.52 32.83 33.89 34.55 34.84 35.87 36.46 36.55 36.58
32.43 29.10 27.47 25.93 24.85 24.52 24.54 24.99 26.07 26.36 28.00 28.85 28.47 28.34 28.80 28.68 27.78 27.50 27.85 28.40 27.59 28.42 28.55 28.65 28.43 28.34 29.00 29.83 30.08 30.28 31.11 31.04 31.00 31.62 31.75 31.50 32.69 33.07 32.81 32.78 32.94 33.53 35.53
30.92 27.56 25.71 25.23 24.44 24.16 24.22 24.74 26.91 26.86 28.04 28.20 27.65 27.20 27.04 27.21 27.13 27.38 27.83 28.21 27.56 26.99 27.30 27.74 27.40 27.67 28.11 28.49 29.60 29.99 29.97 29.92 30.06 30.65 30.80 30.85 31.09 30.01 30.61 31.21 31.49 33.03 33.00
30.86 27.11 25.50 25.15 24.52 24.54 24.83 24.95 25.83 27.24 27.77 27.55 26.99 26.14 26.02 26.28 26.58 27.01 27.05 27.43 27.52 26.84 26.38 26.48 26.71 27.05 27.36 28.81 29.26 29.52 29.08 29.05 29.26 30.57 30.69 30.38 30.12 30.32 30.76 31.16 31.00 30.77 30.21
31.09 27.89 26.49 25.19 23.93 23.72 23.79 25.06 25.86 26.79 27.27 26.50 25.99 25.73 26.52 26.78 26.41 26.14 26.25 26.56 26.49 26.34 26.62 26.39 26.34 26.17 26.48 28.11 29.06 29.18 28.23 27.32 27.44 28.76 29.89 29.55 30.94 32.65 32.86 31.20 30.48 30.64 29.72
30.78 29.02 27.42 24.72 22.97 22.07 23.50 26.92 26.67 26.66 26.91 25.80 25.56 26.12 25.94 25.85 25.65 25.59 25.39 25.28 24.73 24.38 24.30 24.24 24.87 24.97 26.14 29.85 31.49 30.41 27.53 26.71 26.04 26.05 27.70 29.21 30.30 30.40 31.72 32.09 32.75 32.39 29.45
28.61 28.16 25.40 22.98 24.62 26.02 26.90 26.06 25.21 26.09 26.40 26.56 26.39 25.52 24.88 24.39 24.42 24.64 24.35 23.39 23.06 23.41 22.44 22.06 22.28 22.09 22.74 29.17 30.22 30.75 26.27 24.91 24.32 24.93 25.70 26.75 29.08 29.23 28.05 29.95 31.57 31.37 32.18
25.64 25.76 25.84 25.95 26.38 26.08 24.74 25.56 26.35 26.21 26.20 25.25 25.00 24.31 23.65 23.07 23.24 22.78 22.05 21.47 21.59 21.01 20.70 20.66 20.86 20.57 22.53 27.78 29.11 29.63 24.84 24.03 24.39 24.53 24.51 24.82 25.34 26.57 28.63 28.13 27.64 28.42 29.11
23.47 24.15 25.44 25.14 24.63 24.97 26.04 25.86 25.96 25.86 25.53 24.78 23.83 22.95 23.01 21.94 21.74 20.98 19.88 19.90 19.38 19.04 19.50 20.51 19.51 19.41 20.09 26.68 27.94 27.52 22.90 23.07 22.78 24.01 24.08 25.48 25.49 29.28 31.09 28.21 27.48 26.45 27.46
23.81 23.23 24.38 24.84 23.93 24.44 25.33 24.95 24.37 24.06 23.45 22.74 22.23 22.27 21.86 20.94 19.79 19.47 18.92 19.62 18.71 20.16 20.56 20.65 19.70 22.26 19.18 25.13 27.45 27.00 24.11 20.94 22.86 22.69 23.86 27.98 27.47 29.70 30.38 27.24 26.08 25.27 25.80
23.05 23.23 22.97 21.69 22.69 24.03 24.37 23.23 23.16 21.73 22.46 22.08 21.77 21.48 21.18 20.04 19.49 18.74 18.09 17.85 17.95 17.99 16.39 18.25 18.12 18.60 19.86 20.08 26.68 27.99 24.71 24.02 23.98 24.48 24.56 25.15 28.56 29.21 29.94 30.36 28.08 26.99 28.03
22.17 22.05 21.13 20.75 22.50 23.14 22.36 21.17 20.17 20.51 20.77 20.21 19.81 19.31 18.42 19.27 20.48 19.00 18.89 18.69 15.11 14.74 14.75 15.09 16.28 18.04 17.83 23.36 24.32 26.68 27.39 27.21 23.98 23.42 23.62 23.97 28.17 29.36 29.67 29.10 29.53 29.49 29.16
20.28 21.94 20.28 20.60 22.08 22.07 21.14 18.17 18.92 19.19 18.47 17.58 16.88 16.90 17.53 18.80 18.87 18.50 17.64 16.77 14.24 11.77 12.28 14.05 14.34 15.96 19.80 19.55 24.35 25.37 25.94 26.72 24.34 24.53 25.95 27.75 27.92 28.15 27.61 27.12 27.58 28.05 23.42
19.18 19.59 19.39 19.32 19.22 19.59 19.62 18.11 18.60 18.01 16.82 15.22 14.92 15.78 15.66 16.67 15.62 17.42 16.86 14.66 9.44 9.87 14.11 14.59 15.64 15.87 17.91 19.38 20.52 21.39 21.21 24.80 25.28 25.74 24.09 26.32 27.54 26.89 25.75 24.43 24.15 22.98 21.25
18.63 18.99 17.94 17.30 16.54 16.77 16.68 16.97 17.49 16.15 14.97 14.59 14.69 14.32 15.63 14.51 14.47 15.97 13.44 14.82 15.17 17.14 18.41 19.05 19.89 19.02 17.93 20.19 25.04 25.87 24.18 24.13 25.64 25.88 23.76 21.73 22.18 21.97 20.26 21.09 20.91 20.61 20.25
16.84 15.58 15.79 15.78 14.81 14.79 14.86 15.70 16.10 15.63 13.56 13.18 13.84 11.97 11.97 10.20 13.33 10.88 10.61 19.08 21.34 23.07 23.63 24.16 23.00 22.40 24.74 25.88 26.39 26.66 26.68 26.87 26.94 23.44 21.00 18.01 17.84 16.91 17.29 18.45 17.76 18.24 18.61
MSLP
1024.52 1024.72 1024.89 1024.99 1024.75 1024.26 1023.82 1023.43 1022.79 1022.04 1020.99 1019.89 1019.32 1018.79 1019.08 1019.30 1019.29 1019.09 1018.81 1018.70 1018.36 1017.75 1017.65 1017.41 1016.97 1016.41 1015.73 1015.19 1015.12 1015.30 1014.24 1015.27 1015.20 1015.37 1015.43 1015.76 1015.82 1015.68 1015.76 1015.98 1016.36 1016.91 1017.31
1024.50 1024.86 1025.18 1025.20 1025.11 1024.98 1024.58 1024.04 1023.47 1022.80 1022.12 1021.27 1020.64 1020.49 1020.19 1020.28 1020.27 1020.18 1019.90 1019.73 1019.37 1019.20 1018.67 1018.53 1018.17 1017.49 1016.56 1015.87 1015.99 1015.50 1014.70 1014.45 1014.55 1014.46 1015.00 1015.30 1016.03 1015.88 1015.76 1015.96 1016.15 1016.32 1016.64
1024.36 1024.79 1025.02 1025.22 1025.21 1025.16 1025.05 1024.72 1024.34 1023.89 1023.29 1022.51 1021.72 1021.09 1020.78 1020.82 1020.79 1020.93 1020.81 1020.57 1020.58 1020.18 1019.92 1019.38 1019.05 1018.39 1017.75 1017.36 1016.91 1016.09 1015.65 1014.31 1013.52 1013.32 1013.78 1014.45 1014.43 1015.22 1015.27 1015.47 1015.61 1015.87 1016.06
1024.22 1024.61 1025.01 1025.23 1025.25 1025.30 1025.22 1025.10 1024.80 1024.42 1024.16 1023.73 1023.08 1022.61 1022.30 1022.17 1022.52 1022.15 1021.97 1021.53 1021.41 1021.10 1020.67 1020.13 1019.86 1019.28 1018.70 1018.25 1017.77 1017.00 1016.44 1015.36 1014.00 1013.82 1012.57 1013.53 1013.70 1014.25 1014.71 1014.95 1015.03 1015.36 1015.60
1024.14 1024.60 1024.92 1025.23 1025.43 1025.47 1025.45 1025.32 1025.20 1024.88 1024.71 1024.52 1024.17 1023.79 1023.64 1023.75 1023.64 1023.21 1022.94 1022.57 1022.19 1021.57 1021.32 1020.90 1020.43 1019.83 1019.61 1019.28 1018.68 1017.76 1017.34 1016.74 1015.88 1014.96 1014.29 1013.74 1014.52 1013.31 1013.80 1014.39 1014.51 1014.94 1015.06
1023.79 1024.33 1024.87 1025.20 1025.30 1025.25 1025.27 1025.34 1025.34 1025.35 1025.12 1024.96 1024.81 1024.76 1024.72 1024.61 1024.38 1023.93 1023.47 1023.10 1022.62 1022.10 1021.74 1021.25 1020.90 1020.51 1020.21 1019.70 1019.34 1018.98 1018.58 1017.73 1017.36 1016.60 1015.88 1015.92 1014.53 1013.73 1013.59 1013.86 1013.99 1013.84 1014.43
1023.55 1024.29 1024.76 1025.14 1025.44 1025.46 1025.43 1025.44 1025.65 1025.77 1025.66 1025.48 1025.31 1025.18 1025.11 1024.87 1024.73 1024.67 1024.36 1023.66 1023.24 1022.82 1022.41 1021.93 1021.63 1021.36 1021.15 1020.59 1020.41 1019.85 1019.39 1018.88 1018.41 1017.85 1017.25 1017.07 1016.18 1015.50 1014.03 1014.14 1014.39 1014.38 1014.80
1023.39 1023.93 1024.34 1024.89 1025.36 1025.65 1025.83 1025.94 1026.00 1025.94 1025.98 1026.02 1025.98 1025.73 1025.49 1025.32 1025.07 1024.84 1024.63 1024.43 1024.14 1023.63 1023.20 1022.85 1022.63 1021.96 1021.58 1021.28 1020.77 1020.57 1020.12 1019.95 1019.67 1019.49 1018.68 1019.17 1017.88 1017.79 1016.33 1016.07 1015.71 1015.33 1014.87
1023.03 1023.51 1023.99 1024.59 1025.26 1025.64 1025.85 1025.95 1025.99 1025.99 1025.96 1026.02 1026.09 1026.01 1025.84 1025.65 1025.46 1025.18 1024.89 1024.60 1024.46 1023.92 1023.75 1023.33 1022.97 1022.74 1022.29 1021.95 1021.57 1021.35 1021.09 1020.30 1020.72 1020.04 1019.91 1019.84 1019.13 1018.40 1018.21 1017.92 1017.61 1016.71 1016.14
1022.41 1023.06 1023.72 1024.41 1025.01 1025.53 1025.98 1026.08 1026.10 1026.12 1026.09 1025.93 1026.04 1026.09 1025.99 1025.94 1025.76 1025.57 1025.32 1024.89 1024.63 1024.40 1024.18 1023.86 1023.51 1023.15 1022.91 1022.47 1022.00 1022.00 1021.67 1021.20 1021.66 1021.22 1020.53 1020.53 1019.70 1019.18 1019.20 1018.53 1018.56 1018.50 1017.56
1021.53 1022.45 1023.48 1024.32 1024.91 1025.40 1025.80 1026.11 1026.11 1026.03 1025.96 1025.88 1025.96 1026.09 1026.06 1025.98 1025.91 1025.70 1025.68 1025.30 1024.95 1024.73 1024.58 1024.35 1024.02 1023.64 1023.30 1022.94 1022.45 1022.17 1022.00 1021.88 1021.86 1021.39 1021.23 1020.86 1020.38 1020.15 1020.10 1019.77 1019.70 1019.18 1019.33
1021.04 1021.92 1022.95 1023.92 1024.63 1025.06 1025.51 1025.89 1026.10 1026.24 1026.12 1025.95 1025.94 1026.28 1026.14 1026.09 1026.05 1025.90 1025.73 1025.48 1025.27 1025.06 1024.83 1024.57 1024.31 1024.10 1023.81 1023.48 1023.17 1022.81 1022.58 1022.43 1022.02 1022.03 1021.78 1021.37 1020.92 1020.81 1021.01 1021.19 1020.89 1020.48 1019.66
1020.97 1021.97 1023.12 1023.89 1024.48 1025.00 1025.45 1025.73 1026.00 1026.19 1026.34 1026.28 1026.23 1026.53 1026.53 1026.38 1026.31 1026.31 1026.12 1025.87 1025.69 1025.55 1025.31 1025.02 1024.76 1024.48 1024.23 1024.02 1023.76 1023.50 1023.24 1022.96 1022.60 1022.24 1022.00 1021.72 1021.44 1021.59 1021.57 1021.34 1021.15 1021.03 1020.39
1020.93 1021.62 1022.72 1023.53 1024.13 1024.79 1025.41 1025.90 1026.19 1026.48 1026.85 1026.94 1026.80 1026.74 1026.64 1026.62 1026.55 1026.37 1026.26 1026.07 1025.92 1025.79 1025.63 1025.46 1025.24 1024.97 1024.52 1024.20 1024.00 1023.81 1023.64 1023.37 1023.02 1022.59 1022.26 1021.93 1021.82 1021.59 1021.43 1021.40 1021.36 1021.12 1020.30
1021.14 1021.88 1022.58 1023.39 1024.07 1024.75 1025.32 1025.94 1026.43 1026.77 1026.84 1027.00 1026.97 1026.90 1026.71 1026.67 1026.64 1026.54 1026.32 1026.11 1025.98 1025.85 1025.65 1025.50 1025.32 1025.15 1024.76 1024.34 1023.85 1023.76 1023.75 1023.59 1023.29 1022.92 1022.53 1022.17 1021.82 1021.45 1021.26 1021.04 1021.07 1020.66 1020.84
1021.72 1021.91 1022.44 1023.31 1024.26 1024.96 1025.55 1026.28 1026.92 1027.20 1027.50 1027.37 1027.54 1027.58 1027.14 1026.89 1026.80 1026.64 1026.43 1026.29 1026.14 1026.01 1025.82 1025.64 1025.46 1025.25 1024.87 1024.27 1023.76 1023.62 1023.70 1023.68 1023.46 1023.16 1022.79 1022.36 1021.76 1021.54 1021.43 1021.16 1021.02 1021.00 1020.89
1022.68 1022.49 1023.26 1024.07 1024.89 1025.56 1025.96 1026.50 1027.07 1027.48 1027.71 1027.68 1027.67 1027.72 1027.52 1027.19 1026.98 1026.87 1026.70 1026.55 1026.35 1026.14 1025.98 1025.81 1025.60 1025.43 1025.12 1024.38 1023.93 1023.57 1023.63 1023.68 1023.57 1023.29 1022.89 1022.40 1021.94 1021.82 1021.59 1021.38 1021.12 1021.15 1021.10
1023.84 1024.12 1024.76 1025.37 1025.94 1026.37 1026.61 1026.97 1027.48 1027.69 1027.73 1027.77 1027.78 1027.73 1027.54 1027.30 1027.09 1026.96 1026.89 1026.78 1026.58 1026.39 1026.17 1025.89 1025.76 1025.53 1025.18 1024.53 1023.99 1023.54 1023.51 1023.51 1023.38 1023.10 1022.79 1022.42 1021.90 1021.55 1021.24 1021.11 1020.95 1020.85 1020.70
1025.45 1025.75 1026.05 1026.43 1026.75 1027.04 1027.12 1027.40 1027.71 1027.88 1027.91 1027.93 1027.97 1027.82 1027.50 1027.33 1027.16 1027.05 1026.98 1026.83 1026.65 1026.47 1026.18 1025.91 1025.69 1025.37 1025.10 1024.53 1023.95 1023.38 1023.26 1023.24 1023.10 1022.79 1022.51 1022.10 1021.76 1021.45 1020.94 1020.54 1020.61 1020.44 1020.12
1026.37 1026.75 1026.98 1027.17 1027.38 1027.51 1027.55 1027.69 1027.98 1028.11 1028.14 1028.25 1028.16 1027.81 1027.59 1027.36 1027.22 1027.15 1027.10 1026.98 1026.83 1026.60 1026.30 1026.04 1025.80 1025.53 1025.18 1024.65 1023.76 1023.18 1022.97 1022.99 1022.64 1022.33 1022.18 1021.94 1021.57 1021.12 1020.64 1020.26 1020.16 1020.06 1019.82
1027.16 1027.31 1027.45 1027.69 1027.91 1027.97 1027.96 1027.99 1028.21 1028.38 1028.52 1028.30 1028.02 1027.84 1027.62 1027.40 1027.17 1027.16 1027.13 1026.99 1026.83 1026.70 1026.50 1026.21 1026.07 1025.79 1025.42 1024.93 1023.96 1023.25 1022.95 1022.79 1022.37 1022.22 1021.97 1021.76 1021.43 1020.92 1020.41 1020.04 1020.03 1019.94 1019.55
1027.66 1027.83 1027.90 1028.14 1028.34 1028.29 1028.43 1028.43 1028.51 1028.61 1028.44 1028.35 1028.16 1027.98 1027.83 1027.58 1027.34 1027.19 1027.10 1027.01 1026.93 1026.88 1026.74 1026.42 1026.01 1025.66 1025.41 1024.80 1024.29 1023.51 1022.88 1022.49 1022.34 1022.13 1021.87 1021.51 1021.08 1020.59 1020.12 1019.91 1019.73 1019.47 1019.23
1028.39 1028.30 1028.35 1028.54 1028.60 1028.54 1028.72 1028.69 1028.56 1028.55 1028.49 1028.45 1028.31 1028.11 1027.91 1027.68 1027.56 1027.33 1027.14 1027.06 1027.08 1026.98 1026.68 1026.30 1025.91 1025.49 1025.12 1024.80 1024.15 1023.51 1022.92 1022.35 1022.10 1021.94 1021.54 1020.99 1020.63 1020.28 1020.03 1019.92 1019.57 1019.17 1019.41
1028.86 1028.77 1028.70 1028.83 1028.78 1028.69 1028.54 1028.69 1028.61 1028.64 1028.61 1028.57 1028.47 1028.27 1028.06 1027.75 1027.77 1027.53 1027.27 1027.12 1027.05 1026.65 1026.18 1025.75 1025.26 1024.78 1024.48 1024.05 1023.61 1023.08 1022.58 1022.30 1021.93 1021.57 1021.15 1020.84 1020.38 1020.15 1019.89 1019.69 1019.59 1019.43 1019.32
1029.49 1029.26 1029.05 1028.86 1028.95 1028.85 1028.80 1028.81 1028.79 1028.80 1028.76 1028.69 1028.57 1028.51 1028.27 1028.12 1027.85 1027.53 1027.28 1026.86 1026.52 1026.07 1025.36 1024.96 1024.55 1024.19 1023.75 1023.36 1022.75 1022.19 1021.81 1021.54 1021.24 1020.63 1020.56 1020.41 1020.18 1020.05 1019.95 1019.58 1019.42 1019.33 1019.21
1029.67 1029.48 1029.26 1029.23 1029.20 1029.07 1028.95 1028.92 1028.98 1028.97 1028.94 1028.89 1028.78 1028.65 1028.43 1028.18 1027.85 1027.75 1027.22 1026.79 1026.15 1025.48 1024.92 1024.39 1023.97 1023.58 1022.97 1022.42 1021.97 1021.52 1021.20 1020.89 1020.56 1020.31 1020.33 1020.48 1020.31 1020.11 1019.83 1019.54 1019.46 1019.38 1019.17
Wind_Speed
4 5 5 6 9 13 13 14 15 17 12 8 5 4 7 7 8 8 14 12 12 14 11 8 9 8 7 7 6 6 12 11 9 6 2 3 4 5 7 7 8 8 9
4 5 6 6 7 8 11 14 15 16 13 10 5 4 4 5 7 8 11 13 14 13 11 11 9 9 8 8 9 9 7 9 10 9 3 7 5 4 4 4 8 10 7
4 2 3 5 6 7 8 10 12 14 14 15 8 4 3 5 6 9 9 12 13 13 12 12 10 10 8 8 9 8 12 8 9 15 5 4 7 4 4 7 6 9 6
5 3 2 3 5 5 6 8 9 11 12 14 10 11 8 8 6 6 7 8 12 12 12 12 11 10 8 10 9 9 10 10 6 4 6 1 2 5 3 7 8 8 9
7 6 5 4 3 4 5 6 6 8 10 10 10 8 10 7 5 5 8 8 7 11 11 11 11 11 9 10 11 12 12 9 7 4 3 1 4 2 3 4 7 8 8
8 7 5 6 4 3 4 4 5 6 6 7 8 8 7 7 6 7 5 5 6 7 10 11 10 10 10 12 10 11 13 11 9 10 7 5 1 3 3 3 5 9 6
7 7 7 6 4 3 3 4 5 6 6 7 6 6 6 6 6 5 6 7 6 7 10 9 9 9 9 10 10 11 11 12 11 12 9 8 8 7 5 3 0 2 2
6 7 8 6 6 5 4 4 5 5 5 6 6 5 6 4 4 5 4 5 5 5 6 7 8 9 10 10 10 8 8 9 9 11 12 8 8 7 8 6 3 2 2
8 9 8 7 6 5 4 4 5 5 5 5 4 5 5 6 5 6 5 5 5 7 8 8 7 9 9 9 8 7 10 9 8 10 9 7 7 7 7 7 6 4 2
9 8 8 8 6 6 4 4 5 5 4 5 4 4 5 5 5 5 6 6 6 7 7 8 8 8 8 8 9 7 7 9 7 6 9 7 7 8 7 7 7 7 5
10 9 7 7 7 6 5 4 4 5 4 5 5 5 5 5 5 5 5 5 5 6 7 7 7 7 7 9 8 8 9 9 8 8 8 8 9 7 7 8 6 5 5
7 8 9 9 8 7 6 5 4 4 4 4 6 5 5 7 7 7 7 8 7 7 7 7 7 7 7 8 8 9 8 8 8 8 8 9 8 7 6 4 6 6 4
5 8 8 9 8 7 6 6 5 4 4 5 6 6 6 5 5 6 6 6 6 6 6 7 8 8 7 6 7 8 8 8 7 6 6 6 6 6 5 4 3 3 4
5 7 8 8 7 7 7 6 6 6 6 3 3 3 3 3 3 4 4 5 5 5 5 5 5 6 7 4 5 6 7 7 7 7 6 6 6 5 3 3 4 5 4
1 7 9 8 7 8 7 7 8 5 4 3 3 3 3 4 3 4 4 4 4 5 5 5 4 4 5 6 5 5 5 6 7 7 5 5 8 10 8 5 5 3 2
8 6 7 8 8 8 8 9 7 5 2 0 5 5 5 6 5 5 5 4 4 4 4 5 6 6 6 13 14 9 4 6 7 7 7 5 7 8 13 12 11 9 6
8 1 6 7 8 9 7 7 6 4 3 0 2 4 6 6 6 6 6 6 6 5 5 5 5 5 6 15 15 15 3 4 5 7 7 7 5 7 4 9 11 9 11
6 8 9 10 9 7 7 7 4 2 1 3 3 4 5 4 5 5 4 5 4 5 5 5 5 5 7 16 16 16 3 3 5 7 7 8 6 5 9 6 5 5 4
8 9 9 9 7 6 5 4 1 1 0 2 3 5 4 4 4 5 5 5 4 4 4 4 5 6 6 18 17 13 3 3 4 5 6 8 6 13 17 6 6 5 5
7 7 6 7 6 5 4 3 2 1 2 3 5 4 4 4 4 4 4 4 4 6 5 7 6 11 9 17 18 14 4 4 5 5 5 13 12 17 18 10 7 6 7
6 5 5 5 4 4 3 3 2 3 3 5 3 4 5 5 4 4 3 4 4 5 5 6 5 6 8 9 17 17 8 6 7 6 5 5 16 19 19 18 6 8 11
4 4 4 4 3 4 4 4 3 3 3 4 5 4 4 5 5 5 4 4 5 5 5 5 5 4 5 13 14 17 17 15 6 6 5 7 18 20 20 14 18 21 19
3 3 3 2 3 3 1 3 2 3 3 4 5 4 5 6 6 5 5 4 4 3 4 4 5 5 6 5 15 17 16 15 10 7 13 21 21 21 13 15 20 19 4
3 2 3 3 2 0 3 3 3 3 3 4 4 5 4 4 4 4 4 2 2 3 5 5 6 6 6 6 6 7 8 13 10 13 11 13 15 18 15 12 8 4 4
2 1 1 2 2 3 3 4 4 3 3 4 4 3 4 4 4 4 2 3 4 5 6 4 5 5 6 7 15 14 8 7 10 15 6 5 5 3 6 6 3 3 4
2 2 3 3 3 3 3 4 3 3 4 3 3 4 2 2 4 3 4 11 13 15 16 17 13 8 16 21 22 22 21 21 21 8 3 5 5 6 7 6 4 5 8
Wind_Direction
118 66 35 9 8 11 7 6 2 356 358 3 -0 10 33 29 33 28 27 24 19 22 22 12 359 353 342 333 275 228 209 226 221 218 222 281 247 207 196 186 188 188 202
77 52 35 16 17 2 5 7 9 4 2 359 0 12 2 34 35 28 32 26 25 21 23 14 2 357 348 13 351 307 252 239 216 212 215 212 225 230 205 207 199 193 193
138 69 44 28 19 15 6 7 12 10 8 3 6 13 45 37 30 28 28 27 24 28 24 22 12 9 12 3 351 344 328 256 235 215 169 169 212 162 183 204 204 206 192
142 140 81 43 30 23 19 11 13 21 15 8 17 24 41 47 15 20 25 29 27 26 25 23 20 20 16 13 358 4 353 329 277 279 219 249 178 185 161 209 208 214 211
172 176 167 141 74 50 51 38 24 31 26 21 21 31 38 22 12 15 23 27 23 32 23 23 23 27 20 16 8 9 11 359 345 334 20 229 278 112 138 176 192 209 220
178 166 162 142 132 90 92 72 54 36 35 30 25 32 41 26 22 18 18 13 13 19 23 23 23 22 19 23 13 10 15 15 9 9 16 355 33 306 155 139 184 199 194
172 166 165 160 149 120 98 101 65 51 47 44 35 28 24 25 34 15 13 15 14 15 13 19 26 23 17 15 20 22 19 20 17 21 7 11 20 6 358 31 67 139 141
183 179 178 168 157 135 106 87 76 69 61 54 40 33 29 22 32 21 13 20 7 6 360 17 22 32 24 20 24 17 28 22 20 18 27 348 28 5 21 11 347 327 105
196 189 180 170 157 141 124 121 104 87 84 88 73 51 44 39 31 24 15 22 9 14 9 13 23 25 30 27 27 25 19 22 17 17 27 21 19 25 29 16 11 340 12
205 194 180 166 158 145 127 98 97 89 76 70 55 71 69 59 46 30 22 23 17 11 10 13 15 19 30 24 30 28 34 41 14 16 28 21 23 24 19 24 23 9 3
212 190 172 157 149 142 137 128 101 91 71 73 60 48 36 38 32 36 19 12 14 14 13 9 12 15 25 20 25 25 24 25 21 22 28 22 25 24 19 15 7 26 0
225 173 160 157 154 153 147 138 120 90 62 67 65 40 39 35 24 22 17 14 13 13 8 6 12 11 15 22 21 19 12 9 20 16 17 18 14 43 27 8 8 355 359
205 149 148 162 162 155 145 134 117 94 68 60 65 42 31 34 36 18 9 7 5 10 5 6 7 4 2 25 17 15 5 0 2 359 4 6 28 14 358 339 0 356 12
216 158 157 169 159 150 140 125 102 66 58 66 86 76 26 19 18 18 1 355 355 358 356 357 358 354 341 11 7 15 6 356 352 350 351 357 353 330 329 334 348 342 7
343 181 171 171 152 140 127 114 95 77 43 53 55 44 24 14 8 1 353 345 351 351 343 346 344 347 345 349 350 10 7 358 348 341 337 340 332 341 345 354 322 315 301
324 202 172 150 139 130 113 109 103 94 123 237 30 359 350 2 359 352 348 353 354 348 354 354 352 352 354 341 346 352 12 359 342 333 327 314 328 351 336 328 327 324 327
317 198 105 103 108 112 114 116 114 96 76 4 14 9 344 350 352 347 351 355 347 346 355 351 350 349 343 340 340 338 56 355 329 323 322 322 314 318 280 296 308 304 307
28 63 83 89 90 85 84 80 99 127 72 43 10 344 330 330 336 339 347 340 335 336 335 334 343 341 335 338 336 333 347 325 319 321 318 315 294 311 315 283 247 237 246
61 72 83 88 87 85 82 98 108 67 8 64 353 319 319 319 325 337 339 328 330 326 319 335 335 333 322 335 335 332 312 294 299 294 309 316 328 325 315 324 337 310 299
79 86 83 86 81 68 61 67 72 21 41 10 310 305 319 316 322 324 328 322 327 328 341 338 343 332 330 328 333 330 310 302 305 303 298 312 319 315 314 315 319 312 300
87 83 76 81 77 61 38 59 36 35 341 292 318 324 319 323 324 347 323 325 334 343 342 339 329 323 326 326 326 330 325 313 310 303 300 298 314 311 310 305 317 291 301
75 82 90 89 76 59 36 31 19 339 333 351 339 339 350 339 334 329 331 343 344 344 340 331 323 320 310 318 322 315 317 316 328 317 310 291 300 301 306 319 316 316 315
61 60 80 101 107 70 12 328 333 5 355 340 335 335 334 334 341 340 333 330 340 327 306 298 296 286 295 287 304 312 312 312 312 301 296 306 306 304 315 310 306 317 322
71 48 56 45 23 46 7 351 345 358 346 342 336 326 332 337 335 331 320 315 297 294 289 287 286 280 284 285 287 281 283 284 289 284 281 285 297 308 303 310 300 292 296
22 26 315 303 46 16 8 345 356 7 344 327 319 347 326 323 320 332 290 304 282 273 286 287 290 301 289 278 291 303 302 294 292 304 306 285 290 320 307 292 278 291 296
283 358 10 2 353 343 336 348 13 356 333 312 331 310 289 306 320 310 304 310 314 317 318 315 312 304 307 311 312 313 313 311 311 313 339 330 306 298 296 293 298 302 304